Temperature
20 20 20 20 20 20 20 20 20 20 20 20 20 20 20 20 20 20 19 19 19 19 19 19 19 19 19 19 19 19 19 18 18 18 18 18 18 18 18 18 18 18 18
21 21 20 20 20 20 20 20 20 20 20 20 20 20 20 20 20 20 19 19 19 19 19 19 19 19 19 19 19 19 19 18 18 18 19 18 18 18 18 18 18 18 18
21 21 21 21 20 20 20 20 20 20 20 20 20 20 20 20 20 20 19 19 19 19 19 19 19 19 19 19 19 18 18 18 18 18 18 18 18 18 18 18 18 18 18
21 21 21 21 21 20 20 20 20 20 20 20 20 20 20 19 19 19 19 19 19 19 19 19 19 19 19 19 19 19 18 18 18 18 18 18 18 18 18 18 18 18 18
21 21 21 21 21 20 20 20 20 20 20 20 20 20 20 20 19 19 19 19 19 19 19 19 19 19 19 19 19 19 18 18 18 18 18 18 18 18 18 18 18 18 18
21 21 21 21 21 20 20 20 20 20 20 20 20 20 20 20 19 19 19 19 19 19 19 19 19 19 19 19 19 18 19 18 18 18 18 18 18 18 18 18 18 18 18
21 21 21 21 21 20 20 20 20 20 20 20 20 19 20 19 19 19 19 19 19 19 19 19 19 19 19 19 19 18 18 18 18 18 18 18 18 18 18 18 18 18 18
21 21 21 21 20 20 20 20 20 20 20 20 20 19 19 19 19 19 19 19 19 19 19 19 19 19 19 19 19 18 18 18 18 18 18 18 18 18 18 18 18 18 18
21 21 21 21 20 20 20 20 20 20 20 20 20 19 19 19 19 19 19 19 19 19 19 19 19 19 19 18 18 18 18 18 18 18 18 18 18 18 18 18 18 18 18
21 21 21 21 21 20 20 20 20 20 20 20 20 19 19 19 19 19 19 19 19 19 19 19 19 19 18 18 18 18 18 18 18 18 18 18 18 18 18 18 18 18 18
21 21 21 21 20 20 20 20 20 20 20 20 19 19 19 19 19 19 19 19 19 19 19 18 18 18 18 18 18 18 18 18 18 18 18 18 18 18 18 18 18 18 18
21 21 21 21 20 20 20 20 20 20 20 19 19 19 19 19 19 19 19 19 19 19 19 18 18 18 18 18 18 18 18 18 18 18 18 18 18 18 18 18 18 18 18
21 21 21 20 20 20 20 20 20 20 20 19 19 19 19 19 19 19 19 19 19 19 19 18 18 18 18 18 18 18 18 18 18 18 18 18 18 18 18 18 18 18 18
21 21 21 21 20 20 20 20 20 20 20 19 19 19 19 19 19 19 19 19 19 19 19 19 18 18 18 18 18 18 18 18 18 18 18 18 18 18 18 18 18 18 18
21 21 21 20 20 20 20 20 20 20 20 19 19 19 19 19 19 19 19 19 19 19 19 19 18 18 18 18 18 18 18 18 18 18 18 18 18 18 18 18 18 18 18
21 21 21 20 20 20 20 20 20 20 19 19 19 19 19 19 19 19 19 19 19 19 19 18 18 18 18 18 18 18 18 18 18 19 19 18 18 18 18 18 18 18 18
21 21 21 21 21 20 20 20 20 20 20 19 19 19 19 19 19 19 19 19 19 18 18 18 18 18 18 18 18 18 18 19 19 19 18 18 18 18 18 18 18 18 18
22 21 21 21 21 20 20 20 20 20 19 19 19 19 19 19 19 19 19 18 18 18 18 18 18 18 18 18 18 18 18 18 19 19 18 18 18 18 18 18 18 18 18
22 21 21 21 21 20 20 20 20 20 19 19 19 19 19 19 19 19 18 18 18 18 18 18 18 18 18 18 18 18 18 18 19 18 18 18 18 18 18 18 18 18 18
22 21 21 21 21 20 20 20 20 19 19 19 19 19 19 19 19 19 19 19 18 18 18 18 18 18 18 18 18 18 18 18 18 18 18 18 18 18 18 18 18 18 18
22 21 21 21 21 20 20 20 20 19 19 19 19 19 19 19 19 19 19 19 18 18 18 18 18 18 18 18 18 18 18 18 18 18 18 18 18 18 18 18 18 18 18
22 21 21 21 21 20 20 20 19 19 19 19 19 19 19 19 19 19 19 18 18 18 18 18 18 18 18 18 18 18 18 18 18 18 18 18 18 18 18 18 18 18 18
22 22 21 21 21 21 20 20 19 19 19 19 19 19 19 19 19 19 19 18 18 18 18 18 18 18 18 18 18 18 18 18 18 18 18 18 18 18 18 18 18 18 17
22 22 21 21 21 20 20 20 20 19 19 19 19 18 18 18 18 18 18 18 18 18 18 18 18 18 18 18 18 18 18 18 18 17 18 18 18 18 18 18 17 17 17
22 22 21 21 21 20 20 20 19 19 19 19 18 18 18 18 18 18 18 18 18 18 18 18 18 18 18 18 18 18 18 18 18 18 17 17 17 17 17 17 17 17 17
22 21 21 21 21 20 20 20 19 19 19 19 18 18 18 18 18 18 18 18 18 18 18 18 18 18 18 18 18 18 18 18 18 18 18 17 17 17 17 17 17 17 17
Wind_Speed
2 3 6 6 5 5 6 7 7 7 7 7 7 8 8 8 8 8 9 9 10 11 12 12 12 13 14 14 14 15 15 14 14 15 14 13 12 13 14 13 12 10 11
5 5 7 6 6 6 7 7 8 7 8 8 8 7 7 8 8 8 8 9 10 10 11 11 11 12 13 13 13 14 15 15 14 14 14 13 12 12 13 13 11 9 11
6 5 7 7 7 7 8 8 8 8 9 9 8 7 8 8 8 8 8 9 10 10 10 11 11 12 13 13 13 14 15 15 14 14 13 10 11 11 12 12 11 11 12
6 5 7 8 8 8 9 9 10 9 9 9 8 8 8 8 9 8 8 8 9 10 10 10 10 11 12 13 13 14 14 15 15 14 10 9 10 11 12 12 11 12 12
5 5 7 9 8 9 10 10 10 9 9 9 9 9 9 9 8 8 8 9 9 9 9 10 10 10 11 13 13 14 14 15 14 12 9 9 9 12 13 12 12 11 11
5 5 7 8 9 9 9 9 9 9 9 9 10 9 9 8 8 8 8 9 9 9 8 9 10 10 10 12 13 13 14 14 12 10 9 10 10 13 13 12 12 11 10
5 5 7 8 8 8 9 9 9 9 10 10 10 9 8 7 7 7 8 8 8 7 7 8 9 11 12 12 12 13 13 14 10 9 9 9 11 13 13 13 11 10 10
6 4 6 8 8 8 8 8 9 10 10 10 9 8 7 7 7 7 8 8 8 7 6 8 10 11 11 11 12 12 13 13 10 9 9 10 13 14 13 13 12 11 10
5 5 4 5 6 7 8 8 9 9 9 9 9 8 7 7 7 8 8 8 8 7 7 8 10 10 11 11 11 11 11 12 9 7 9 9 13 14 13 12 12 10 10
4 4 3 3 4 4 5 8 8 9 8 8 8 8 7 8 8 9 8 7 6 6 8 8 9 10 9 9 9 10 10 10 7 7 7 10 13 13 13 12 11 10 10
5 3 4 4 3 4 4 6 6 7 7 7 6 7 6 5 5 6 7 7 6 6 7 8 9 8 8 8 8 9 8 6 7 6 7 11 13 13 13 12 12 11 11
4 3 3 4 4 3 4 4 4 4 4 4 3 4 3 3 4 5 6 6 7 7 8 8 8 6 5 4 6 6 5 7 6 5 8 12 12 12 12 12 11 11 11
4 4 4 4 4 4 3 4 2 2 3 3 3 3 3 3 3 3 3 3 4 6 5 5 4 4 3 3 4 5 6 5 5 5 8 11 12 11 11 11 11 11 11
6 5 4 4 5 4 4 3 3 2 3 3 3 4 4 3 3 3 3 3 3 3 4 3 3 3 4 5 6 6 5 4 5 6 8 10 11 11 11 11 11 10 10
6 6 5 5 5 4 5 3 4 3 3 3 3 4 5 4 3 3 3 3 3 4 4 4 4 4 4 5 5 6 5 5 5 6 7 10 10 10 11 10 10 10 9
5 5 5 6 5 5 5 4 3 3 3 4 4 4 6 5 4 4 3 3 3 3 4 4 4 4 3 4 4 4 4 5 5 6 6 8 9 10 11 10 10 9 8
6 5 5 6 6 6 5 4 4 3 4 4 3 4 5 5 4 4 3 3 3 4 5 4 4 4 4 4 3 3 3 3 4 5 6 7 7 9 10 10 9 9 8
7 6 5 6 6 6 5 4 3 4 4 3 3 4 4 4 4 4 3 3 3 4 4 3 3 3 3 2 2 1 1 2 3 4 5 5 6 6 8 9 9 9 9
7 6 5 5 5 5 4 4 4 4 4 3 3 3 3 5 5 4 3 3 3 3 3 3 3 3 3 2 2 1 1 1 2 3 4 5 5 5 6 8 9 9 8
7 6 6 5 5 5 4 4 3 4 4 3 3 3 3 4 5 4 4 3 3 3 3 3 3 2 2 2 2 1 1 1 2 2 3 4 4 6 6 5 5 6 8
7 6 5 5 4 4 3 3 3 2 2 2 2 3 4 4 4 4 4 3 3 2 2 2 2 2 1 1 2 2 2 1 1 2 2 2 3 5 6 6 5 5 4
7 6 6 5 4 4 3 3 2 2 1 2 2 2 3 3 3 3 3 3 2 2 2 1 2 2 0 1 2 2 2 3 2 1 1 2 2 2 3 5 6 5 4
8 7 7 5 5 4 4 4 3 3 3 3 2 2 2 3 3 3 3 2 2 2 1 1 2 3 1 1 1 3 2 2 1 2 0 1 2 2 2 3 5 5 6
8 7 7 6 5 4 5 5 5 4 2 1 1 1 2 2 2 3 3 2 2 2 1 1 1 2 2 1 1 1 2 3 2 1 2 1 1 2 2 2 3 4 5
7 7 6 6 5 4 5 6 5 4 2 1 2 2 2 2 2 2 2 2 2 1 1 1 1 1 1 1 1 0 0 1 1 2 1 1 1 1 0 1 2 3 4
7 6 6 6 4 4 5 5 5 5 4 3 2 2 1 1 1 2 2 1 1 1 1 1 1 1 1 1 0 1 1 1 1 2 2 1 1 1 0 0 1 2 3
Wind_Direction
191 189 150 132 121 119 123 128 128 127 126 125 125 124 127 128 131 137 139 143 149 155 158 160 163 164 164 161 160 160 157 154 153 157 159 155 155 160 163 157 151 150 150
170 166 147 126 115 112 118 125 130 127 125 123 121 124 129 129 130 135 142 146 148 152 155 159 159 161 162 162 163 161 158 157 155 155 156 157 154 156 162 160 155 154 153
146 151 142 125 114 113 117 122 127 125 124 123 117 118 126 128 129 133 140 147 150 151 153 155 157 157 158 160 164 163 162 161 159 157 157 156 157 158 159 156 156 157 154
138 145 140 128 118 116 118 120 123 123 123 121 118 113 118 120 121 124 133 142 144 146 150 155 159 158 160 163 166 166 167 167 162 160 157 155 157 158 154 154 155 154 152
131 143 141 132 127 120 116 116 119 124 123 120 118 113 112 113 119 122 129 138 140 142 146 155 156 157 161 166 169 167 165 164 160 157 154 155 158 159 155 156 156 155 152
136 144 143 133 132 127 121 118 118 121 119 115 115 114 111 111 118 124 127 132 137 139 145 155 156 155 156 158 162 161 160 158 154 150 150 155 159 162 162 162 158 155 156
144 147 145 134 133 132 126 121 121 120 120 116 113 111 106 109 115 121 121 123 130 138 147 154 153 153 151 152 156 155 153 154 148 145 151 156 160 163 165 163 160 163 164
143 145 143 138 129 128 130 126 122 121 119 116 113 111 103 103 116 123 119 121 124 127 130 143 148 147 147 146 149 151 151 151 148 149 152 158 162 164 166 166 167 167 168
129 129 130 143 138 131 130 127 124 121 119 114 112 106 99 98 115 125 124 125 125 127 127 133 148 144 140 141 143 148 148 150 146 148 156 160 165 168 169 171 172 171 171
117 126 122 124 135 136 132 124 125 123 119 116 112 109 98 98 111 118 121 126 130 133 135 131 136 138 136 137 140 144 142 143 145 149 158 163 166 170 171 174 178 177 175
97 100 113 113 128 141 135 126 124 121 121 119 115 109 100 95 104 113 117 123 125 130 137 132 130 130 129 130 132 138 136 131 137 144 156 163 168 172 175 177 179 177 177
111 110 108 115 120 130 136 129 128 121 121 118 118 106 92 91 109 109 111 113 111 116 128 128 132 130 120 117 124 132 128 131 134 142 153 160 166 171 175 175 177 179 181
119 107 105 118 118 112 107 119 120 117 110 109 108 108 102 93 91 88 100 103 103 106 116 117 115 117 116 115 120 123 125 126 132 141 149 158 165 168 173 175 176 179 184
96 93 90 98 104 104 107 109 117 105 96 93 101 106 104 89 82 82 85 88 88 102 102 94 95 95 99 106 119 121 121 126 130 138 153 161 167 171 173 176 177 175 179
93 87 90 87 94 101 98 99 102 92 96 106 105 102 107 98 94 82 80 86 89 104 109 104 97 93 88 93 108 116 123 137 142 144 153 162 167 169 170 173 174 172 176
105 97 90 86 88 95 99 99 100 99 104 101 98 95 99 101 97 93 88 88 95 112 116 114 112 106 100 96 102 114 128 142 148 151 156 162 168 172 174 177 178 176 177
125 111 103 100 85 87 91 94 89 86 98 97 97 90 95 102 103 103 92 88 97 106 101 100 95 90 93 90 95 112 127 136 146 153 156 157 169 178 181 183 184 183 181
124 116 107 102 91 90 90 88 83 81 87 91 96 92 92 99 102 97 95 88 95 97 96 99 99 94 92 101 111 129 123 128 144 160 160 162 170 179 185 190 188 185 182
131 126 113 100 101 100 97 89 81 78 76 86 91 86 90 97 102 99 95 94 95 88 89 106 96 105 113 122 142 145 151 167 182 169 166 173 176 177 185 192 191 186 184
128 122 114 102 98 99 96 84 69 61 60 69 77 82 90 95 99 100 94 88 95 92 83 92 101 93 122 149 142 113 223 215 195 184 185 172 178 185 190 187 186 192 196
126 121 117 110 106 104 102 102 97 80 64 59 64 73 84 90 98 100 102 96 92 99 110 119 114 101 111 118 87 28 354 312 212 199 180 171 191 191 179 178 178 180 192
143 140 136 133 128 123 127 131 130 125 106 99 65 64 86 95 104 109 106 112 108 101 80 84 119 121 149 141 134 103 17 350 337 238 175 185 189 159 158 176 171 172 177
152 156 151 150 142 135 128 113 100 78 59 51 50 47 45 82 95 107 113 114 119 126 136 151 152 146 172 263 163 147 153 215 300 337 335 151 161 153 170 161 168 175 176
166 162 153 151 142 140 134 127 126 123 128 156 147 91 58 60 77 99 109 112 111 107 119 134 133 144 147 205 298 210 185 164 160 280 338 357 133 156 183 181 170 184 182
161 156 149 142 138 137 135 139 134 129 140 131 98 84 61 40 55 79 109 104 100 92 108 85 86 113 136 163 207 230 103 98 133 155 221 304 353 338 210 183 170 180 189
150 145 143 136 136 139 139 138 139 141 141 126 114 103 72 31 30 37 78 87 96 96 128 141 139 119 112 115 120 133 154 159 182 161 179 202 208 300 7 95 163 193 178
Height
1496 1494 1492 1490 1487 1485 1483 1483 1483 1485 1485 1486 1486 1486 1487 1487 1488 1488 1489 1489 1489 1491 1492 1493 1495 1497 1499 1501 1503 1505 1508 1510 1511 1514 1516 1518 1520 1522 1523 1525 1527 1528 1529
1496 1494 1492 1490 1486 1482 1481 1481 1482 1484 1485 1485 1485 1485 1485 1486 1486 1487 1488 1488 1489 1490 1491 1492 1494 1495 1497 1500 1502 1505 1507 1509 1512 1514 1516 1518 1520 1521 1523 1525 1527 1528 1529
1496 1494 1492 1490 1486 1482 1480 1480 1482 1484 1485 1485 1484 1483 1483 1484 1485 1486 1486 1487 1488 1489 1490 1491 1493 1494 1496 1499 1502 1504 1507 1510 1512 1514 1516 1518 1520 1521 1523 1525 1527 1528 1529
1496 1494 1493 1490 1487 1484 1482 1482 1483 1485 1486 1486 1485 1484 1483 1483 1484 1485 1486 1487 1488 1489 1490 1491 1492 1494 1495 1498 1501 1504 1506 1509 1512 1514 1516 1518 1520 1522 1523 1525 1527 1528 1529
1496 1495 1494 1491 1489 1487 1486 1486 1486 1487 1487 1487 1487 1486 1485 1485 1485 1485 1486 1486 1488 1489 1490 1491 1492 1493 1494 1497 1500 1503 1506 1509 1512 1514 1516 1518 1520 1522 1523 1525 1527 1528 1529
1497 1496 1495 1493 1491 1490 1490 1489 1489 1489 1489 1488 1488 1488 1487 1487 1487 1487 1487 1488 1489 1489 1490 1490 1491 1492 1493 1496 1499 1503 1506 1509 1512 1514 1516 1518 1520 1521 1523 1525 1527 1528 1529
1498 1497 1496 1495 1493 1493 1492 1492 1492 1491 1491 1490 1490 1490 1489 1488 1488 1488 1488 1489 1489 1490 1490 1490 1490 1492 1494 1498 1501 1503 1507 1510 1512 1514 1516 1518 1520 1522 1524 1525 1526 1528 1529
1498 1497 1497 1496 1495 1495 1495 1494 1494 1494 1494 1493 1492 1492 1490 1487 1486 1488 1489 1490 1490 1490 1491 1490 1491 1493 1496 1499 1502 1504 1508 1510 1512 1514 1517 1519 1520 1522 1524 1525 1526 1527 1529
1499 1498 1498 1497 1497 1497 1497 1497 1497 1496 1496 1495 1495 1493 1490 1486 1484 1487 1490 1491 1492 1492 1491 1492 1493 1496 1498 1501 1503 1506 1508 1511 1513 1515 1517 1519 1521 1522 1524 1525 1526 1527 1528
1500 1500 1499 1499 1499 1499 1499 1499 1499 1499 1498 1498 1497 1495 1493 1490 1488 1490 1492 1493 1493 1492 1492 1494 1496 1498 1500 1503 1505 1507 1510 1512 1514 1515 1517 1519 1521 1522 1524 1525 1526 1527 1528
1502 1501 1501 1500 1500 1501 1501 1501 1501 1501 1501 1500 1499 1498 1497 1495 1494 1495 1495 1495 1493 1491 1492 1495 1498 1501 1503 1504 1506 1508 1510 1512 1514 1516 1517 1519 1521 1523 1524 1525 1526 1527 1528
1503 1503 1502 1502 1502 1502 1503 1503 1503 1503 1503 1503 1502 1501 1500 1500 1499 1498 1498 1497 1495 1493 1494 1498 1501 1503 1504 1505 1507 1509 1511 1513 1515 1517 1518 1520 1521 1522 1524 1525 1526 1527 1527
1506 1505 1505 1504 1504 1504 1505 1505 1505 1505 1505 1505 1505 1504 1503 1502 1502 1501 1501 1501 1499 1498 1499 1502 1504 1506 1506 1507 1508 1510 1512 1515 1516 1518 1519 1520 1522 1523 1524 1525 1526 1526 1527
1507 1507 1507 1507 1507 1507 1507 1507 1507 1507 1507 1507 1507 1506 1505 1505 1504 1504 1504 1504 1504 1504 1504 1505 1507 1508 1509 1509 1510 1512 1514 1516 1518 1519 1520 1521 1522 1523 1524 1525 1526 1526 1526
1509 1509 1509 1509 1509 1509 1509 1509 1509 1509 1509 1509 1509 1508 1508 1507 1507 1507 1506 1506 1507 1507 1507 1508 1509 1510 1511 1512 1513 1514 1516 1517 1519 1520 1521 1522 1523 1524 1525 1525 1526 1526 1526
1510 1511 1511 1511 1511 1510 1510 1510 1510 1511 1510 1511 1511 1510 1510 1509 1509 1509 1509 1509 1509 1509 1510 1510 1511 1512 1513 1514 1515 1516 1517 1519 1520 1520 1521 1522 1523 1524 1525 1525 1525 1526 1526
1512 1512 1512 1512 1512 1512 1512 1512 1512 1512 1512 1512 1512 1512 1512 1512 1511 1511 1511 1511 1511 1511 1512 1513 1513 1514 1515 1516 1516 1517 1518 1519 1520 1521 1522 1522 1523 1524 1525 1525 1525 1525 1526
1512 1512 1513 1513 1513 1514 1514 1514 1514 1514 1514 1514 1514 1514 1513 1513 1513 1513 1513 1513 1514 1513 1514 1514 1515 1515 1516 1517 1518 1519 1519 1520 1521 1522 1522 1523 1523 1524 1525 1525 1525 1525 1526
1512 1513 1513 1514 1514 1514 1515 1515 1515 1515 1515 1515 1515 1515 1515 1515 1515 1515 1515 1515 1515 1516 1516 1516 1517 1517 1518 1519 1519 1520 1521 1521 1522 1522 1523 1523 1524 1524 1524 1524 1525 1525 1525
1513 1513 1514 1514 1515 1515 1516 1516 1516 1516 1517 1517 1517 1517 1517 1517 1517 1517 1517 1517 1517 1517 1518 1518 1518 1519 1519 1520 1520 1520 1521 1521 1522 1522 1523 1523 1523 1524 1524 1524 1524 1525 1525
1513 1514 1514 1514 1515 1515 1516 1516 1517 1517 1517 1518 1518 1518 1518 1518 1518 1518 1518 1518 1518 1518 1519 1519 1519 1519 1520 1520 1521 1521 1521 1521 1522 1522 1523 1523 1523 1523 1523 1523 1524 1524 1524
1513 1513 1514 1515 1515 1516 1516 1517 1517 1518 1518 1519 1519 1519 1519 1519 1519 1519 1519 1519 1519 1519 1519 1519 1519 1519 1520 1521 1520 1520 1521 1522 1521 1522 1522 1522 1523 1523 1523 1523 1523 1523 1523
1513 1514 1514 1515 1516 1516 1517 1517 1518 1518 1519 1519 1519 1519 1520 1520 1519 1519 1519 1519 1519 1519 1519 1519 1519 1520 1520 1520 1520 1521 1521 1520 1521 1521 1521 1521 1522 1522 1522 1522 1522 1522 1522
1512 1513 1514 1515 1516 1516 1517 1517 1517 1518 1518 1519 1519 1520 1520 1520 1520 1520 1520 1519 1519 1519 1519 1519 1519 1519 1519 1519 1519 1520 1520 1520 1520 1520 1520 1521 1521 1521 1521 1521 1521 1521 1521
1512 1513 1514 1515 1515 1516 1517 1518 1518 1518 1519 1519 1520 1520 1520 1520 1520 1520 1520 1519 1519 1519 1518 1518 1518 1518 1518 1518 1518 1518 1518 1519 1518 1518 1518 1519 1520 1520 1520 1520 1520 1520 1520
1512 1513 1514 1515 1515 1516 1517 1518 1518 1518 1519 1519 1520 1519 1519 1520 1519 1519 1519 1519 1518 1518 1517 1517 1517 1517 1517 1517 1517 1517 1517 1517 1517 1517 1516 1517 1518 1519 1519 1518 1518 1518 1518